Weather History for Joliet, IL

Change the Weather History Date:

Tuesday, May 8, 2012

  Actual Average (KLOT) Record (KLOT)
Temperature  
Mean Temperature 58 °F 58 °F  
Max Temperature 69 °F 69 °F 89 °F (2014)
Min Temperature 48 °F 47 °F 38 °F (1994)
Degree Days  
Heating Degree Days 6 8  
Month to date heating degree days 70  
Since 1 July heating degree days 6064  
Cooling Degree Days 0 1  
Month to date cooling degree days 6  
Year to date cooling degree days 11  
Growing Degree Days 8 (Base 50)    
Moisture  
Dew Point 50 °F    
Average Humidity 73    
Maximum Humidity 100    
Minimum Humidity 38    
Precipitation  
Precipitation 0.01 in 0.14 in 0.68 in (1995)
Month to date precipitation 1.14  
Year to date precipitation 11.58  
Sea Level Pressure  
Sea Level Pressure 29.87 in    
Wind  
Wind Speed 3 mph (WSW)    
Max Wind Speed 16 mph    
Max Gust Speed 25 mph    
Visibility 9 miles    
Events Fog    
T = Trace of Precipitation, MM = Missing Value Source: NWS Daily Summary

Daily Weather History Graph

Daily Weather History Graph

Search for Another Location

Airport:

Trip Planner

Search our weather history database for the weather conditions in past years. The results will help you decide how hot, cold, wet, or windy it might be!

Date:

Astronomy

May. 08, 2012 Rise Set
Actual Time 5:40 AM CDT 7:58 PM CDT
Civil Twilight 5:09 AM CDT 8:29 PM CDT
Nautical Twilight 4:31 AM CDT 9:07 PM CDT
Astronomical Twilight 3:49 AM CDT 9:50 PM CDT
Moon 11:09 PM CDT (5/8) 7:47 AM CDT (5/8)
Length of Visible Light 15h 19m
Length of Day
14h 18m
Waning Gibbous, 90% of the Moon is Illuminated
May 8
Waning Gibbous
May 12
Last Quarter
May 20
New
May 28
First Quarter
Jun 4
Full

Hourly Weather History & Observations

Time (CDT) Temp. Dew Point Humidity Pressure Visibility Wind Dir Wind Speed Gust Speed Precip Events Conditions
12:15 AM 50.4 °F 50.4 °F 100% 29.87 in 0.2 mi Calm Calm - N/A Fog Fog
12:35 AM 49.6 °F 49.6 °F 100% 29.86 in 0.2 mi Calm Calm - N/A Fog Fog
12:55 AM 50.0 °F 50.0 °F 100% 29.85 in 0.2 mi Calm Calm - N/A Fog Fog
1:15 AM 49.1 °F 49.1 °F 100% 29.86 in 0.5 mi Calm Calm - N/A Fog Fog
1:35 AM 50.2 °F 50.2 °F 100% 29.86 in 0.2 mi Calm Calm - N/A Fog Fog
1:55 AM 48.4 °F 48.4 °F 100% 29.86 in 0.2 mi Calm Calm - N/A Fog Fog
2:15 AM 48.4 °F 48.4 °F 100% 29.86 in 0.2 mi Calm Calm - N/A Fog Fog
2:35 AM 48.4 °F 48.4 °F 100% 29.85 in 0.2 mi Calm Calm - N/A Fog Fog
2:55 AM 49.8 °F 49.8 °F 100% 29.86 in 0.5 mi West 3.5 mph - N/A Fog Fog
3:15 AM 53.2 °F 53.2 °F 100% 29.86 in 10.0 mi Calm Calm - N/A   Clear
3:35 AM 53.2 °F 53.2 °F 100% 29.86 in 10.0 mi Calm Calm - N/A   Clear
3:55 AM 51.8 °F 51.8 °F 100% 29.86 in 10.0 mi Calm Calm - N/A   Clear
4:15 AM 52.2 °F 52.2 °F 100% 29.86 in 10.0 mi Calm Calm - N/A   Clear
4:35 AM 49.1 °F 49.1 °F 100% 29.87 in 10.0 mi Calm Calm - N/A   Clear
4:55 AM 48.4 °F 48.4 °F 100% 29.86 in 10.0 mi Calm Calm - N/A   Clear
5:15 AM 48.4 °F 48.4 °F 100% 29.86 in 7.0 mi Calm Calm - N/A   Clear
5:35 AM 48.4 °F 48.4 °F 100% 29.85 in 3.0 mi Calm Calm - N/A   Clear
5:55 AM 48.4 °F 48.4 °F 100% 29.86 in 10.0 mi Calm Calm - N/A   Clear
6:15 AM 51.8 °F 51.8 °F 100% 29.86 in 10.0 mi Calm Calm - N/A   Clear
6:35 AM 53.6 °F 53.6 °F 100% 29.87 in 10.0 mi Calm Calm - N/A   Clear
6:55 AM 53.6 °F 53.6 °F 100% 29.89 in 10.0 mi Calm Calm - N/A   Clear
7:15 AM 54.1 °F 53.1 °F 96% 29.89 in 10.0 mi Calm Calm - N/A   Clear
7:35 AM 55.9 °F 54.7 °F 96% 29.90 in 10.0 mi Calm Calm - N/A   Clear
7:55 AM 55.9 °F 54.5 °F 95% 29.89 in 10.0 mi Calm Calm - N/A   Clear
8:15 AM 58.5 °F 55.6 °F 90% 29.89 in 10.0 mi West 3.5 mph - N/A   Clear
8:35 AM 60.1 °F 56.1 °F 87% 29.89 in 10.0 mi West 6.9 mph - N/A   Clear
8:55 AM 61.0 °F 56.5 °F 85% 29.89 in 10.0 mi West 6.9 mph - N/A   Clear
9:15 AM 61.5 °F 56.5 °F 83% 29.89 in 10.0 mi West 5.8 mph - N/A   Clear
9:35 AM 63.1 °F 57.2 °F 81% 29.89 in 10.0 mi West 5.8 mph - N/A   Clear
9:55 AM 64.6 °F 57.9 °F 79% 29.89 in 10.0 mi West 6.9 mph - N/A   Clear
10:15 AM 66.2 °F 59.5 °F 79% 29.89 in 10.0 mi West 10.4 mph - N/A   Clear
10:35 AM 66.2 °F 57.9 °F 75% 29.89 in 10.0 mi WSW 8.1 mph - N/A   Clear
10:55 AM 66.2 °F 56.8 °F 72% 29.89 in 10.0 mi West 5.8 mph - N/A   Clear
11:15 AM 67.8 °F 57.9 °F 71% 29.90 in 10.0 mi WSW 9.2 mph - N/A   Clear
11:35 AM 68.0 °F 57.2 °F 68% 29.89 in 10.0 mi West 10.4 mph 17.3 mph N/A   Scattered Clouds
11:55 AM 68.5 °F 55.4 °F 63% 29.90 in 10.0 mi West 8.1 mph 18.4 mph N/A   Scattered Clouds
12:15 PM 68.5 °F 53.2 °F 58% 29.89 in 10.0 mi WSW 10.4 mph 17.3 mph N/A   Scattered Clouds
12:35 PM 68.5 °F 52.9 °F 57% 29.89 in 10.0 mi West 11.5 mph 19.6 mph N/A   Scattered Clouds
12:55 PM 68.5 °F 52.3 °F 56% 29.88 in 10.0 mi WSW 10.4 mph 16.1 mph N/A   Clear
1:15 PM 68.5 °F 52.9 °F 57% 29.88 in 10.0 mi West 8.1 mph 21.9 mph N/A   Scattered Clouds
1:35 PM 68.5 °F 52.0 °F 55% 29.89 in 10.0 mi West 16.1 mph 20.7 mph N/A   Scattered Clouds
1:55 PM 69.3 °F 51.8 °F 54% 29.89 in 10.0 mi West 12.7 mph 25.3 mph N/A   Scattered Clouds
2:15 PM 68.5 °F 51.8 °F 55% 29.89 in 10.0 mi West 8.1 mph 17.3 mph N/A   Scattered Clouds
2:35 PM 68.5 °F 51.4 °F 54% 29.89 in 10.0 mi WSW 12.7 mph 18.4 mph N/A   Clear
2:55 PM - - N/A% 29.89 in 10.0 mi West 13.8 mph 18.4 mph N/A   Scattered Clouds
3:15 PM 69.4 °F 43.0 °F 38% 29.88 in 10.0 mi WSW 10.4 mph 17.3 mph N/A   Clear
3:35 PM 68.5 °F 44.2 °F 42% 29.87 in 10.0 mi West 6.9 mph - N/A   Scattered Clouds
3:55 PM 68.2 °F 43.0 °F 40% 29.87 in 10.0 mi WSW 10.4 mph 20.7 mph N/A   Scattered Clouds
4:15 PM 67.6 °F 41.7 °F 39% 29.86 in 10.0 mi WSW 9.2 mph 17.3 mph N/A   Scattered Clouds
4:35 PM 67.8 °F 42.6 °F 40% 29.86 in 10.0 mi West 10.4 mph 16.1 mph N/A   Mostly Cloudy
4:55 PM 67.6 °F 42.4 °F 40% 29.86 in 10.0 mi West 9.2 mph - N/A   Scattered Clouds
5:15 PM 66.6 °F 42.6 °F 42% 29.86 in 10.0 mi WSW 8.1 mph - N/A   Mostly Cloudy
5:35 PM 66.4 °F 43.5 °F 44% 29.86 in 10.0 mi WSW 8.1 mph - N/A   Mostly Cloudy
5:55 PM 66.2 °F 43.5 °F 44% 29.86 in 10.0 mi West 6.9 mph - N/A   Overcast
6:15 PM 66.2 °F 42.8 °F 43% 29.86 in 10.0 mi West 9.2 mph - N/A   Mostly Cloudy
6:35 PM 65.8 °F 43.5 °F 44% 29.86 in 10.0 mi West 6.9 mph - N/A   Mostly Cloudy
6:55 PM 65.3 °F 43.9 °F 46% 29.86 in 10.0 mi WSW 8.1 mph - N/A   Mostly Cloudy
7:15 PM 64.9 °F 44.1 °F 47% 29.86 in 10.0 mi WSW 5.8 mph - N/A   Mostly Cloudy
7:35 PM 63.7 °F 44.8 °F 50% 29.86 in 10.0 mi WSW 5.8 mph - N/A   Scattered Clouds
7:55 PM 63.0 °F 45.1 °F 52% 29.86 in 10.0 mi WSW 4.6 mph - N/A   Scattered Clouds
8:15 PM 61.7 °F 45.5 °F 55% 29.86 in 10.0 mi WSW 4.6 mph - N/A   Scattered Clouds
8:35 PM 61.5 °F 45.5 °F 56% 29.87 in 10.0 mi WSW 5.8 mph - N/A   Mostly Cloudy
8:55 PM 60.1 °F 45.5 °F 59% 29.87 in 10.0 mi West 4.6 mph - N/A   Scattered Clouds
9:15 PM 59.2 °F 45.9 °F 61% 29.87 in 10.0 mi WSW 3.5 mph - N/A   Clear
9:35 PM 58.5 °F 46.0 °F 63% 29.87 in 10.0 mi West 3.5 mph - N/A   Clear
9:55 PM 57.6 °F 45.9 °F 65% 29.87 in 10.0 mi Calm Calm - N/A   Clear
10:15 PM 56.8 °F 46.2 °F 68% 29.88 in 10.0 mi WSW 3.5 mph - N/A   Clear
10:35 PM 56.8 °F 46.0 °F 67% 29.88 in 10.0 mi Calm Calm - N/A   Mostly Cloudy
10:55 PM 58.1 °F 45.7 °F 63% 29.88 in 10.0 mi WSW 3.5 mph - N/A   Overcast
11:15 PM 58.1 °F 45.5 °F 63% 29.88 in 10.0 mi SW 4.6 mph - N/A   Overcast
11:35 PM 57.7 °F 45.5 °F 64% 29.88 in 10.0 mi WSW 4.6 mph - N/A   Overcast
11:55 PM 57.7 °F 45.5 °F 64% 29.88 in 10.0 mi WSW 4.6 mph - N/A   Overcast